2023/02/01 00:00:00,82.7, 0.7
2023/02/01 00:10:00,82.7, 0.7
2023/02/01 00:20:00,82.7, 0.6
2023/02/01 00:30:00,82.7, 0.6
2023/02/01 00:40:00,82.6, 0.7
2023/02/01 00:50:00,82.6, 0.5
2023/02/01 01:00:00,82.6, 0.7
2023/02/01 01:10:00,82.5, 0.8
2023/02/01 01:20:00,82.5, 0.7
2023/02/01 01:30:00,82.4, 0.6
2023/02/01 01:40:00,82.4, 0.7
2023/02/01 01:50:00,82.3, 0.3
2023/02/01 02:00:00,82.3, 1.0
2023/02/01 02:10:00,82.2, 0.9
2023/02/01 02:20:00,82.1, 0.9
2023/02/01 02:30:00,82.1, 0.8
2023/02/01 02:40:00,82.1, 1.1
2023/02/01 02:50:00,81.9, 1.1
2023/02/01 03:00:00,81.9, 0.6
2023/02/01 03:10:00,81.8, 0.9
2023/02/01 03:20:00,81.7, 1.1
2023/02/01 03:30:00,81.6, 1.0
2023/02/01 03:40:00,81.5, 1.1
2023/02/01 03:50:00,81.3, 1.1
2023/02/01 04:00:00,81.3, 1.1
2023/02/01 04:10:00,81.2, 1.0
2023/02/01 04:20:00,81.2, 0.9
2023/02/01 04:30:00,81.2, 0.8
2023/02/01 04:40:00,81.1, 0.7
2023/02/01 04:50:00,81.1, 1.0
2023/02/01 05:00:00,81.0, 1.2
2023/02/01 05:10:00,81.0, 1.4
2023/02/01 05:20:00,81.0, 1.2
2023/02/01 05:30:00,81.0, 1.4
2023/02/01 05:40:00,81.0, 1.6
2023/02/01 05:50:00,80.9, 1.1
2023/02/01 06:00:00,80.9, 1.4
2023/02/01 06:10:00,80.8, 1.4
2023/02/01 06:20:00,80.8, 1.4
2023/02/01 06:30:00,80.7, 1.5
2023/02/01 06:40:00,80.6, 1.6
2023/02/01 06:50:00,80.6, 1.7
2023/02/01 07:00:00,80.6, 1.7
2023/02/01 07:10:00,80.5, 1.7
2023/02/01 07:20:00,80.4, 2.1
2023/02/01 07:30:00,80.3, 1.9
2023/02/01 07:40:00,80.1, 2.1
2023/02/01 07:50:00,80.0, 2.3
2023/02/01 08:00:00,79.9, 2.2
2023/02/01 08:10:00,79.7, 2.4
2023/02/01 08:20:00,79.7, 2.7
2023/02/01 08:30:00,79.6, 2.9
2023/02/01 08:40:00,79.5, 3.3
2023/02/01 08:50:00,79.5, 3.1
2023/02/01 09:00:00,79.5, 3.6
2023/02/01 09:10:00,79.5, 3.5
2023/02/01 09:20:00,79.3, 3.5
2023/02/01 09:30:00,79.2, 3.6
2023/02/01 09:40:00,79.1, 3.6
2023/02/01 09:50:00,78.9, 3.9
2023/02/01 10:00:00,78.6, 3.6
2023/02/01 10:10:00,78.4, 3.5
2023/02/01 10:20:00,78.3, 2.9
2023/02/01 10:30:00,78.0, 2.9
2023/02/01 10:40:00,78.0, 2.9
2023/02/01 10:50:00,77.8, 3.2
2023/02/01 11:00:00,77.8, 3.7
2023/02/01 11:10:00,77.7, 4.0
2023/02/01 11:20:00,77.4, 4.2
2023/02/01 11:30:00,77.2, 4.3
2023/02/01 11:40:00,77.0, 3.9
2023/02/01 11:50:00,76.8, 3.2
2023/02/01 12:00:00,76.6, 3.4
2023/02/01 12:10:00,76.5, 3.6
2023/02/01 12:20:00,76.6, 3.9
2023/02/01 12:30:00,76.5, 4.6
2023/02/01 12:40:00,76.5, 5.1
2023/02/01 12:50:00,76.4, 5.7
2023/02/01 13:00:00,76.3, 5.9
2023/02/01 13:10:00,76.0, 7.1
2023/02/01 13:20:00,75.8, 6.6
2023/02/01 13:30:00,75.5, 6.7
2023/02/01 13:40:00,74.9, 6.3
2023/02/01 13:50:00,74.6, 5.4
2023/02/01 14:00:00,74.5, 6.0
2023/02/01 14:10:00,74.4, 5.7
2023/02/01 14:20:00,74.2, 4.8
2023/02/01 14:30:00,73.8, 4.4
2023/02/01 14:40:00,73.6, 4.2
2023/02/01 14:50:00,73.2, 4.2
2023/02/01 15:00:00,72.8, 3.6
2023/02/01 15:10:00,72.8, 3.3
2023/02/01 15:20:00,72.6, 3.2
2023/02/01 15:30:00,72.5, 3.2
2023/02/01 15:40:00,72.2, 3.4
2023/02/01 15:50:00,72.0, 3.5
2023/02/01 16:00:00,71.7, 3.5
2023/02/01 16:10:00,71.2, 3.1
2023/02/01 16:20:00,70.9, 3.0
2023/02/01 16:30:00,70.6, 3.1
2023/02/01 16:40:00,70.4, 3.2
2023/02/01 16:50:00,68.1, 3.0
2023/02/01 17:00:00,66.6, 2.9
2023/02/01 17:10:00,65.8, 2.9
2023/02/01 17:20:00,65.5, 3.1
2023/02/01 17:30:00,65.2, 3.0
2023/02/01 17:40:00,65.0, 3.3
2023/02/01 17:50:00,64.7, 2.6
2023/02/01 18:00:00,64.4, 2.8
2023/02/01 18:10:00,64.4, 2.9
2023/02/01 18:20:00,64.3, 2.8
2023/02/01 18:30:00,64.2, 2.5
2023/02/01 18:40:00,64.1, 2.4
2023/02/01 18:50:00,64.1, 2.4
2023/02/01 19:00:00,64.1, 2.3
2023/02/01 19:10:00,64.0, 1.9
2023/02/01 19:20:00,63.9, 2.0
2023/02/01 19:30:00,63.8, 1.9
2023/02/01 19:40:00,63.9, 1.5
2023/02/01 19:50:00,63.9, 1.4
2023/02/01 20:00:00,63.8, 1.4
2023/02/01 20:10:00,63.6, 1.2
2023/02/01 20:20:00,63.4, 1.4
2023/02/01 20:30:00,63.6, 1.2
2023/02/01 20:40:00,63.5, 1.1
2023/02/01 20:50:00,63.8, 0.9
2023/02/01 21:00:00,63.5, 0.4
2023/02/01 21:10:00,63.8, 0.7
2023/02/01 21:20:00,64.0, 0.3
2023/02/01 21:30:00,64.2, 0.1
2023/02/01 21:40:00,64.3, 0.0
2023/02/01 21:50:00,64.2, 0.0
2023/02/01 22:00:00,64.2,-0.1
2023/02/01 22:10:00,64.4,-0.1
2023/02/01 22:20:00,64.4,-0.4
2023/02/01 22:30:00,64.6,-0.5
2023/02/01 22:40:00,64.9,-0.5
2023/02/01 22:50:00,64.7,-0.4
2023/02/01 23:00:00,64.8,-0.6
2023/02/01 23:10:00,64.9,-0.5
2023/02/01 23:20:00,65.0,-0.8
2023/02/01 23:30:00,65.0,-0.9
2023/02/01 23:40:00,65.0,-0.8
2023/02/01 23:50:00,65.1,-0.9
